| time (UTC) | temp F | wind direction | speed MPH | gust MPH | rain 1hr in | rain 24hr in | rain mn in | humidity % | barometer mb |
| 20260510234037 | 69 | 0 | 0.0 | 2.0 | 0.00 | 0.00 | 0.00 | 55 | 1020.2 |
| 20260510233537 | 69 | 0 | 0.0 | 2.0 | 0.00 | 0.00 | 0.00 | 59 | 1020.2 |
| 20260510233045 | 69 | 347 | 0.0 | 3.0 | 0.00 | 0.00 | 0.00 | 59 | 1020.3 |
| 20260510232537 | 69 | 0 | 0.0 | 3.0 | 0.00 | 0.00 | 0.00 | 56 | 1020.2 |
| 20260510232037 | 69 | 143 | 0.0 | 3.0 | 0.00 | 0.00 | 0.00 | 54 | 1020.2 |
| 20260510231558 | 69 | 0 | 1.0 | 2.0 | 0.00 | 0.00 | 0.00 | 58 | 1020.3 |
| 20260510231037 | 69 | 360 | 1.0 | 3.0 | 0.00 | 0.00 | 0.00 | 57 | 1020.4 |
| 20260510230543 | 69 | 89 | 0.0 | 3.0 | 0.00 | 0.00 | 0.00 | 55 | 1020.3 |
| 20260510230051 | 69 | 331 | 1.0 | 4.0 | 0.00 | 0.00 | 0.00 | 59 | 1020.5 |
| 20260510225537 | 69 | 0 | 0.0 | 4.0 | 0.00 | 0.00 | 0.00 | 58 | 1020.5 |
| 20260510225040 | 70 | 74 | 1.0 | 4.0 | 0.00 | 0.00 | 0.00 | 56 | 1020.4 |
| 20260510224559 | 70 | 329 | 1.0 | 4.0 | 0.00 | 0.00 | 0.00 | 54 | 1020.5 |
| 20260510224039 | 70 | 328 | 1.0 | 5.0 | 0.00 | 0.00 | 0.00 | 57 | 1020.4 |
| 20260510223545 | 69 | 80 | 2.0 | 5.0 | 0.00 | 0.00 | 0.00 | 56 | 1020.3 |
| 20260510223050 | 70 | 64 | 2.0 | 5.0 | 0.00 | 0.00 | 0.00 | 60 | 1020.3 |
| 20260510222539 | 69 | 63 | 2.0 | 4.0 | 0.00 | 0.00 | 0.00 | 59 | 1020.4 |
| 20260510222038 | 69 | 169 | 1.0 | 4.0 | 0.00 | 0.00 | 0.00 | 58 | 1020.3 |
| 20260510221548 | 69 | 169 | 1.0 | 4.0 | 0.00 | 0.00 | 0.00 | 54 | 1020.3 |
| 20260510221039 | 69 | 62 | 3.0 | 4.0 | 0.00 | 0.00 | 0.00 | 58 | 1020.2 |
| 20260510220539 | 69 | 123 | 1.0 | 4.0 | 0.00 | 0.00 | 0.00 | 57 | 1020.2 |
| 20260510220051 | 69 | 0 | 1.0 | 3.0 | 0.00 | 0.00 | 0.00 | 65 | 1020.2 |
| 20260510215537 | 68 | 55 | 1.0 | 3.0 | 0.00 | 0.00 | 0.00 | 64 | 1020.2 |
| 20260510215041 | 67 | 0 | 0.0 | 2.0 | 0.00 | 0.00 | 0.00 | 64 | 1020.3 |
| 20260510214546 | 67 | 28 | 0.0 | 2.0 | 0.00 | 0.00 | 0.00 | 63 | 1020.3 |
| 20260510214040 | 67 | 0 | 0.0 | 2.0 | 0.00 | 0.00 | 0.00 | 62 | 1020.4 |
| 20260510213541 | 66 | 15 | 1.0 | 7.0 | 0.00 | 0.00 | 0.00 | 64 | 1020.3 |
| 20260510213100 | 66 | 33 | 2.0 | 7.0 | 0.00 | 0.00 | 0.00 | 62 | 1020.2 |
| 20260510212540 | 66 | 0 | 2.0 | 8.0 | 0.00 | 0.00 | 0.00 | 62 | 1020.2 |
| 20260510212042 | 65 | 166 | 3.0 | 8.0 | 0.00 | 0.00 | 0.00 | 63 | 1020.3 |
| 20260510211625 | 65 | 140 | 1.0 | 4.0 | 0.00 | 0.00 | 0.00 | 61 | 1020.3 |
| 20260510211038 | 64 | 0 | 1.0 | 6.0 | 0.00 | 0.00 | 0.00 | 62 | 1020.2 |
| 20260510210540 | 64 | 168 | 1.0 | 8.0 | 0.00 | 0.00 | 0.00 | 63 | 1020.2 |
| 20260510210052 | 64 | 192 | 2.0 | 8.0 | 0.00 | 0.00 | 0.00 | 63 | 1020.3 |
| 20260510205542 | 64 | 178 | 2.0 | 6.0 | 0.00 | 0.00 | 0.00 | 63 | 1020.4 |
| 20260510205038 | 64 | 161 | 2.0 | 8.0 | 0.00 | 0.00 | 0.00 | 65 | 1020.5 |
| 20260510204549 | 64 | 183 | 2.0 | 8.0 | 0.00 | 0.00 | 0.00 | 63 | 1020.5 |
| 20260510204040 | 64 | 204 | 1.0 | 6.0 | 0.00 | 0.00 | 0.00 | 70 | 1020.5 |
| 20260510203540 | 64 | 176 | 2.0 | 6.0 | 0.00 | 0.00 | 0.00 | 66 | 1020.5 |
| 20260510203045 | 64 | 0 | 1.0 | 6.0 | 0.00 | 0.00 | 0.00 | 68 | 1020.4 |
| 20260510202543 | 64 | 360 | 1.0 | 6.0 | 0.00 | 0.00 | 0.00 | 68 | 1020.3 |
| 20260510202042 | 64 | 188 | 2.0 | 5.0 | 0.00 | 0.00 | 0.00 | 68 | 1020.3 |
| 20260510201553 | 64 | 137 | 1.0 | 5.0 | 0.00 | 0.00 | 0.00 | 71 | 1020.1 |
| 20260510201038 | 63 | 196 | 3.0 | 5.0 | 0.00 | 0.00 | 0.00 | 70 | 1020.2 |
| 20260510200538 | 64 | 179 | 1.0 | 3.0 | 0.00 | 0.00 | 0.00 | 70 | 1020.2 |
| 20260510200055 | 64 | 0 | 1.0 | 3.0 | 0.00 | 0.00 | 0.00 | 71 | 1020.3 |
| 20260510195541 | 64 | 0 | 0.0 | 3.0 | 0.00 | 0.00 | 0.00 | 70 | 1020.4 |
| 20260510195038 | 63 | 221 | 0.0 | 2.0 | 0.00 | 0.00 | 0.00 | 71 | 1020.4 |
| 20260510194600 | 63 | 178 | 1.0 | 3.0 | 0.00 | 0.00 | 0.00 | 71 | 1020.4 |
| 20260510194038 | 63 | 0 | 1.0 | 3.0 | 0.00 | 0.00 | 0.00 | 73 | 1020.3 |
| 20260510193541 | 62 | 63 | 1.0 | 2.0 | 0.00 | 0.00 | 0.00 | 74 | 1020.3 |
| 20260510193046 | 62 | 63 | 1.0 | 2.0 | 0.00 | 0.00 | 0.00 | 74 | 1020.3 |
| 20260510192538 | 62 | 63 | 1.0 | 2.0 | 0.00 | 0.00 | 0.00 | 73 | 1020.2 |
| 20260510192042 | 62 | 0 | 0.0 | 3.0 | 0.00 | 0.00 | 0.00 | 71 | 1020.2 |
| 20260510191605 | 62 | 63 | 1.0 | 3.0 | 0.00 | 0.00 | 0.00 | 72 | 1020.3 |
| 20260510191042 | 62 | 63 | 2.0 | 3.0 | 0.00 | 0.00 | 0.00 | 71 | 1020.5 |
| 20260510190538 | 62 | 17 | 1.0 | 4.0 | 0.00 | 0.00 | 0.00 | 71 | 1020.4 |
| 20260510190100 | 62 | 293 | 1.0 | 5.0 | 0.00 | 0.00 | 0.00 | 72 | 1020.2 |
| 20260510185540 | 62 | 336 | 1.0 | 6.0 | 0.00 | 0.00 | 0.00 | 73 | 1020.1 |
| 20260510185038 | 61 | 186 | 1.0 | 6.0 | 0.00 | 0.00 | 0.00 | 73 | 1020.0 |
| 20260510184552 | 61 | 138 | 0.0 | 2.0 | 0.00 | 0.00 | 0.00 | 75 | 1019.9 |
| 20260510184040 | 60 | 0 | 0.0 | 2.0 | 0.00 | 0.00 | 0.00 | 77 | 1020.0 |
| 20260510183539 | 60 | 0 | 0.0 | 3.0 | 0.00 | 0.00 | 0.00 | 75 | 1020.0 |
| 20260510183058 | 60 | 0 | 0.0 | 4.0 | 0.00 | 0.00 | 0.00 | 75 | 1020.0 |
| 20260510182538 | 60 | 0 | 1.0 | 4.0 | 0.00 | 0.00 | 0.00 | 76 | 1020.1 |
| 20260510182040 | 60 | 0 | 1.0 | 4.0 | 0.00 | 0.00 | 0.00 | 77 | 1020.0 |
| 20260510181549 | 59 | 105 | 1.0 | 4.0 | 0.00 | 0.00 | 0.00 | 78 | 1019.9 |
| 20260510181041 | 59 | 339 | 1.0 | 4.0 | 0.00 | 0.00 | 0.00 | 78 | 1020.1 |
| 20260510180538 | 59 | 241 | 1.0 | 4.0 | 0.00 | 0.00 | 0.00 | 80 | 1020.1 |
| 20260510180053 | 58 | 166 | 0.0 | 4.0 | 0.00 | 0.00 | 0.00 | 79 | 1020.0 |
| 20260510175539 | 58 | 180 | 0.0 | 3.0 | 0.00 | 0.00 | 0.00 | 78 | 1020.0 |
| 20260510175039 | 58 | 179 | 1.0 | 4.0 | 0.00 | 0.00 | 0.00 | 79 | 1020.0 |
| 20260510174554 | 58 | 176 | 1.0 | 4.0 | 0.00 | 0.00 | 0.00 | 78 | 1020.0 |
| 20260510174038 | 58 | 0 | 0.0 | 3.0 | 0.00 | 0.00 | 0.00 | 78 | 1020.0 |
| 20260510173538 | 58 | 211 | 0.0 | 3.0 | 0.00 | 0.00 | 0.00 | 79 | 1020.0 |
| 20260510173049 | 58 | 211 | 1.0 | 3.0 | 0.00 | 0.00 | 0.00 | 78 | 1019.9 |
| 20260510172544 | 57 | 92 | 1.0 | 3.0 | 0.00 | 0.00 | 0.00 | 79 | 1019.8 |
| 20260510172038 | 57 | 70 | 1.0 | 3.0 | 0.00 | 0.00 | 0.00 | 81 | 1019.7 |
| 20260510171546 | 57 | 0 | 1.0 | 3.0 | 0.00 | 0.00 | 0.00 | 80 | 1019.7 |
| 20260510171041 | 57 | 0 | 0.0 | 2.0 | 0.00 | 0.00 | 0.00 | 80 | 1019.5 |
| 20260510170541 | 56 | 0 | 0.0 | 3.0 | 0.00 | 0.00 | 0.00 | 80 | 1019.5 |
| 20260510170107 | 56 | 0 | 0.0 | 3.0 | 0.00 | 0.00 | 0.00 | 80 | 1019.5 |
| 20260510165541 | 56 | 205 | 1.0 | 3.0 | 0.00 | 0.00 | 0.00 | 79 | 1019.5 |
| 20260510165042 | 56 | 233 | 0.0 | 2.0 | 0.00 | 0.00 | 0.00 | 80 | 1019.6 |
| 20260510164550 | 56 | 233 | 0.0 | 3.0 | 0.00 | 0.00 | 0.00 | 80 | 1019.5 |
| 20260510164040 | 56 | 0 | 0.0 | 3.0 | 0.00 | 0.00 | 0.00 | 79 | 1019.5 |
| 20260510163541 | 57 | 233 | 1.0 | 3.0 | 0.00 | 0.00 | 0.00 | 80 | 1019.5 |
| 20260510163055 | 57 | 0 | 0.0 | 2.0 | 0.00 | 0.00 | 0.00 | 79 | 1019.5 |
| 20260510162537 | 57 | 0 | 0.0 | 3.0 | 0.00 | 0.00 | 0.00 | 79 | 1019.5 |
| 20260510162037 | 56 | 67 | 0.0 | 3.0 | 0.00 | 0.00 | 0.00 | 80 | 1019.4 |
| 20260510161547 | 56 | 67 | 0.0 | 3.0 | 0.00 | 0.00 | 0.00 | 80 | 1019.5 |
| 20260510161038 | 56 | 72 | 1.0 | 2.0 | 0.00 | 0.00 | 0.00 | 81 | 1019.5 |
| 20260510160541 | 55 | 55 | 0.0 | 2.0 | 0.00 | 0.00 | 0.00 | 81 | 1019.4 |
| 20260510160058 | 55 | 0 | 0.0 | 3.0 | 0.00 | 0.00 | 0.00 | 80 | 1019.4 |
| 20260510155540 | 55 | 0 | 0.0 | 3.0 | 0.00 | 0.00 | 0.00 | 80 | 1019.4 |
| 20260510155041 | 55 | 342 | 1.0 | 3.0 | 0.00 | 0.00 | 0.00 | 80 | 1019.3 |
| 20260510154553 | 55 | 0 | 0.0 | 3.0 | 0.00 | 0.00 | 0.00 | 83 | 1019.3 |
| 20260510154037 | 55 | 0 | 1.0 | 3.0 | 0.00 | 0.00 | 0.00 | 82 | 1019.3 |
| 20260510153539 | 55 | 0 | 0.0 | 2.0 | 0.00 | 0.00 | 0.00 | 83 | 1019.1 |
| 20260510153041 | 55 | 0 | 0.0 | 2.0 | 0.00 | 0.00 | 0.00 | 83 | 1018.9 |
| 20260510152541 | 54 | 71 | 0.0 | 2.0 | 0.00 | 0.00 | 0.00 | 84 | 1018.9 |
| 20260510152043 | 54 | 0 | 0.0 | 2.0 | 0.00 | 0.00 | 0.00 | 84 | 1019.2 |
| 20260510151547 | 54 | 71 | 0.0 | 3.0 | 0.00 | 0.00 | 0.00 | 84 | 1019.0 |
| 20260510151039 | 54 | 28 | 1.0 | 3.0 | 0.00 | 0.00 | 0.00 | 85 | 1018.8 |
| 20260510150538 | 54 | 0 | 1.0 | 3.0 | 0.00 | 0.00 | 0.00 | 86 | 1019.1 |
| 20260510150047 | 53 | 0 | 0.0 | 0.0 | 0.00 | 0.00 | 0.00 | 87 | 1019.1 |
| 20260510145537 | 53 | 0 | 0.0 | 0.0 | 0.00 | 0.00 | 0.00 | 87 | 1018.8 |
| 20260510145037 | 52 | 0 | 0.0 | 0.0 | 0.00 | 0.00 | 0.00 | 88 | 1018.7 |
| 20260510144558 | 52 | 0 | 0.0 | 0.0 | 0.00 | 0.00 | 0.00 | 88 | 1018.9 |
| 20260510144037 | 52 | 0 | 0.0 | 0.0 | 0.00 | 0.00 | 0.00 | 88 | 1018.8 |
| 20260510143538 | 52 | 0 | 0.0 | 0.0 | 0.00 | 0.00 | 0.00 | 88 | 1018.8 |
| 20260510143046 | 52 | 0 | 0.0 | 0.0 | 0.00 | 0.00 | 0.00 | 89 | 1018.5 |
| 20260510142537 | 51 | 0 | 0.0 | 0.0 | 0.00 | 0.00 | 0.00 | 88 | 1018.6 |
| 20260510142037 | 51 | 0 | 0.0 | 0.0 | 0.00 | 0.00 | 0.00 | 88 | 1018.6 |
| 20260510141552 | 51 | 0 | 0.0 | 0.0 | 0.00 | 0.00 | 0.00 | 89 | 1018.5 |
| 20260510141041 | 51 | 0 | 0.0 | 0.0 | 0.00 | 0.00 | 0.00 | 88 | 1018.5 |
| 20260510140537 | 51 | 0 | 0.0 | 0.0 | 0.00 | 0.00 | 0.00 | 88 | 1018.3 |
| 20260510140043 | 51 | 0 | 0.0 | 0.0 | 0.00 | 0.00 | 0.00 | 88 | 1018.5 |
| 20260510135540 | 50 | 0 | 0.0 | 0.0 | 0.00 | 0.00 | 0.00 | 88 | 1018.2 |
| 20260510135038 | 50 | 0 | 0.0 | 0.0 | 0.00 | 0.00 | 0.00 | 88 | 1018.2 |
| 20260510134552 | 50 | 0 | 0.0 | 0.0 | 0.00 | 0.00 | 0.00 | 88 | 1018.1 |
| 20260510134038 | 50 | 0 | 0.0 | 0.0 | 0.00 | 0.00 | 0.00 | 87 | 1018.1 |
| 20260510133543 | 50 | 0 | 0.0 | 0.0 | 0.00 | 0.00 | 0.00 | 87 | 1018.2 |
| 20260510133055 | 50 | 0 | 0.0 | 0.0 | 0.00 | 0.00 | 0.00 | 87 | 1017.9 |
| 20260510132538 | 50 | 0 | 0.0 | 0.0 | 0.00 | 0.00 | 0.00 | 87 | 1017.9 |
| 20260510132041 | 50 | 0 | 0.0 | 0.0 | 0.00 | 0.00 | 0.00 | 87 | 1017.9 |
| 20260510131546 | 50 | 0 | 0.0 | 0.0 | 0.00 | 0.00 | 0.00 | 87 | 1018.1 |
| 20260510131038 | 50 | 0 | 0.0 | 0.0 | 0.00 | 0.00 | 0.00 | 87 | 1017.9 |
| 20260510130538 | 50 | 0 | 0.0 | 0.0 | 0.00 | 0.00 | 0.00 | 87 | 1017.9 |
| 20260510130051 | 50 | 0 | 0.0 | 0.0 | 0.00 | 0.00 | 0.00 | 87 | 1017.9 |
| 20260510125538 | 51 | 0 | 0.0 | 0.0 | 0.00 | 0.00 | 0.00 | 87 | 1018.3 |
| 20260510125037 | 51 | 0 | 0.0 | 0.0 | 0.00 | 0.00 | 0.00 | 87 | 1018.4 |
| 20260510124558 | 51 | 0 | 0.0 | 0.0 | 0.00 | 0.00 | 0.00 | 87 | 1018.4 |
| 20260510124039 | 51 | 0 | 0.0 | 0.0 | 0.00 | 0.00 | 0.00 | 87 | 1018.3 |
| 20260510123539 | 51 | 0 | 0.0 | 0.0 | 0.00 | 0.00 | 0.00 | 87 | 1018.2 |
| 20260510123050 | 51 | 0 | 0.0 | 0.0 | 0.00 | 0.00 | 0.00 | 87 | 1018.2 |
| 20260510122539 | 51 | 0 | 0.0 | 0.0 | 0.00 | 0.00 | 0.00 | 86 | 1018.3 |
| 20260510122039 | 51 | 0 | 0.0 | 0.0 | 0.00 | 0.00 | 0.00 | 86 | 1018.2 |
| 20260510121551 | 51 | 0 | 0.0 | 0.0 | 0.00 | 0.00 | 0.00 | 86 | 1018.2 |
| 20260510121041 | 51 | 0 | 0.0 | 0.0 | 0.00 | 0.00 | 0.00 | 86 | 1018.1 |
| 20260510120541 | 51 | 0 | 0.0 | 0.0 | 0.00 | 0.00 | 0.00 | 86 | 1018.3 |
| 20260510120047 | 51 | 0 | 0.0 | 0.0 | 0.00 | 0.00 | 0.00 | 86 | 1018.3 |
| 20260510115538 | 51 | 0 | 0.0 | 0.0 | 0.00 | 0.00 | 0.00 | 86 | 1018.1 |
| 20260510115038 | 51 | 0 | 0.0 | 0.0 | 0.00 | 0.00 | 0.00 | 86 | 1018.0 |
| 20260510114548 | 51 | 0 | 0.0 | 0.0 | 0.00 | 0.00 | 0.00 | 86 | 1018.1 |
| 20260510114037 | 51 | 0 | 0.0 | 0.0 | 0.00 | 0.00 | 0.00 | 85 | 1017.9 |
| 20260510113541 | 51 | 0 | 0.0 | 0.0 | 0.00 | 0.00 | 0.00 | 86 | 1018.0 |
| 20260510113050 | 51 | 0 | 0.0 | 0.0 | 0.00 | 0.00 | 0.00 | 86 | 1018.1 |
| 20260510112538 | 51 | 0 | 0.0 | 0.0 | 0.00 | 0.00 | 0.00 | 85 | 1018.1 |
| 20260510112038 | 51 | 0 | 0.0 | 0.0 | 0.00 | 0.00 | 0.00 | 85 | 1018.1 |
| 20260510111551 | 52 | 0 | 0.0 | 0.0 | 0.00 | 0.00 | 0.00 | 85 | 1017.9 |
| 20260510111037 | 52 | 0 | 0.0 | 0.0 | 0.00 | 0.00 | 0.00 | 85 | 1017.9 |
| 20260510110538 | 52 | 0 | 0.0 | 0.0 | 0.00 | 0.00 | 0.00 | 85 | 1017.7 |
| 20260510110047 | 52 | 0 | 0.0 | 0.0 | 0.00 | 0.00 | 0.00 | 85 | 1017.7 |
| 20260510105541 | 52 | 0 | 0.0 | 0.0 | 0.00 | 0.00 | 0.00 | 85 | 1017.7 |
| 20260510105039 | 52 | 0 | 0.0 | 0.0 | 0.00 | 0.00 | 0.00 | 85 | 1017.7 |
| 20260510104547 | 52 | 0 | 0.0 | 0.0 | 0.00 | 0.00 | 0.00 | 84 | 1017.6 |
| 20260510104042 | 52 | 0 | 0.0 | 0.0 | 0.00 | 0.00 | 0.00 | 84 | 1017.5 |
| 20260510103538 | 52 | 0 | 0.0 | 0.0 | 0.00 | 0.00 | 0.00 | 84 | 1017.3 |
| 20260510103051 | 52 | 0 | 0.0 | 0.0 | 0.00 | 0.00 | 0.00 | 84 | 1017.3 |
| 20260510102538 | 52 | 0 | 0.0 | 0.0 | 0.00 | 0.00 | 0.00 | 84 | 1017.3 |
| 20260510102039 | 52 | 0 | 0.0 | 0.0 | 0.00 | 0.00 | 0.00 | 84 | 1017.1 |
| 20260510101545 | 52 | 0 | 0.0 | 0.0 | 0.00 | 0.00 | 0.00 | 84 | 1017.1 |
| 20260510101042 | 52 | 0 | 0.0 | 0.0 | 0.00 | 0.00 | 0.00 | 83 | 1016.8 |
| 20260510100539 | 53 | 0 | 0.0 | 0.0 | 0.00 | 0.00 | 0.00 | 83 | 1016.6 |
| 20260510100052 | 53 | 0 | 0.0 | 0.0 | 0.00 | 0.00 | 0.00 | 83 | 1016.5 |
| 20260510095538 | 53 | 0 | 0.0 | 0.0 | 0.00 | 0.00 | 0.00 | 83 | 1016.5 |
| 20260510095038 | 53 | 0 | 0.0 | 0.0 | 0.00 | 0.00 | 0.00 | 83 | 1016.4 |
| 20260510094600 | 54 | 0 | 0.0 | 0.0 | 0.00 | 0.00 | 0.00 | 83 | 1016.5 |
| 20260510094041 | 54 | 0 | 0.0 | 0.0 | 0.00 | 0.00 | 0.00 | 83 | 1016.6 |
| 20260510093538 | 54 | 0 | 0.0 | 0.0 | 0.00 | 0.00 | 0.00 | 83 | 1016.6 |
| 20260510093111 | 54 | 0 | 0.0 | 0.0 | 0.00 | 0.00 | 0.00 | 82 | 1016.6 |
| 20260510092539 | 54 | 0 | 0.0 | 0.0 | 0.00 | 0.00 | 0.00 | 82 | 1016.7 |
| 20260510092039 | 54 | 0 | 0.0 | 0.0 | 0.00 | 0.00 | 0.00 | 82 | 1016.7 |
| 20260510091548 | 54 | 0 | 0.0 | 0.0 | 0.00 | 0.00 | 0.00 | 82 | 1016.5 |
| 20260510091038 | 54 | 0 | 0.0 | 0.0 | 0.00 | 0.00 | 0.00 | 82 | 1016.5 |
| 20260510090538 | 54 | 0 | 0.0 | 0.0 | 0.00 | 0.00 | 0.00 | 82 | 1016.4 |
| 20260510090048 | 54 | 0 | 0.0 | 0.0 | 0.00 | 0.00 | 0.00 | 81 | 1016.3 |
| 20260510085539 | 54 | 0 | 0.0 | 0.0 | 0.00 | 0.00 | 0.00 | 81 | 1016.2 |
| 20260510085038 | 54 | 0 | 0.0 | 0.0 | 0.00 | 0.00 | 0.00 | 81 | 1016.1 |
| 20260510084550 | 54 | 0 | 0.0 | 0.0 | 0.00 | 0.00 | 0.00 | 81 | 1016.0 |
| 20260510084042 | 55 | 0 | 0.0 | 0.0 | 0.00 | 0.00 | 0.00 | 80 | 1016.0 |
| 20260510083542 | 55 | 0 | 0.0 | 0.0 | 0.00 | 0.00 | 0.00 | 80 | 1016.0 |
| 20260510083051 | 55 | 0 | 0.0 | 0.0 | 0.00 | 0.00 | 0.00 | 80 | 1016.1 |
| 20260510082537 | 55 | 0 | 0.0 | 0.0 | 0.00 | 0.00 | 0.00 | 80 | 1016.1 |
| 20260510082039 | 55 | 0 | 0.0 | 0.0 | 0.00 | 0.00 | 0.00 | 80 | 1016.1 |
| 20260510081549 | 55 | 0 | 0.0 | 0.0 | 0.00 | 0.00 | 0.00 | 80 | 1016.1 |
| 20260510081039 | 55 | 0 | 0.0 | 0.0 | 0.00 | 0.00 | 0.00 | 80 | 1016.2 |
| 20260510080538 | 55 | 0 | 0.0 | 0.0 | 0.00 | 0.00 | 0.00 | 80 | 1016.2 |
| 20260510080051 | 56 | 0 | 0.0 | 0.0 | 0.00 | 0.00 | 0.00 | 79 | 1016.2 |
| 20260510075539 | 56 | 0 | 0.0 | 0.0 | 0.00 | 0.00 | 0.00 | 79 | 1016.2 |
| 20260510075043 | 56 | 0 | 0.0 | 0.0 | 0.00 | 0.00 | 0.00 | 78 | 1016.3 |
| 20260510074555 | 56 | 0 | 0.0 | 0.0 | 0.00 | 0.00 | 0.00 | 78 | 1016.3 |
| 20260510074041 | 56 | 0 | 0.0 | 0.0 | 0.00 | 0.00 | 0.00 | 78 | 1016.4 |
| 20260510073541 | 57 | 0 | 0.0 | 0.0 | 0.00 | 0.00 | 0.00 | 78 | 1016.4 |
| 20260510073055 | 57 | 0 | 0.0 | 0.0 | 0.00 | 0.00 | 0.00 | 78 | 1016.4 |
| 20260510072538 | 57 | 0 | 0.0 | 0.0 | 0.00 | 0.00 | 0.00 | 78 | 1016.2 |
| 20260510072038 | 57 | 0 | 0.0 | 0.0 | 0.00 | 0.00 | 0.00 | 77 | 1016.3 |
| 20260510071553 | 58 | 0 | 0.0 | 0.0 | 0.00 | 0.00 | 0.00 | 77 | 1016.3 |
| 20260510071038 | 58 | 0 | 0.0 | 0.0 | 0.00 | 0.00 | 0.00 | 76 | 1016.4 |
| 20260510070540 | 58 | 0 | 0.0 | 0.0 | 0.00 | 0.00 | 0.00 | 76 | 1016.4 |
| 20260510070054 | 58 | 0 | 0.0 | 0.0 | 0.00 | 0.00 | 0.00 | 76 | 1016.3 |
| 20260510065539 | 58 | 0 | 0.0 | 0.0 | 0.00 | 0.00 | 0.00 | 75 | 1016.3 |
| 20260510065038 | 59 | 0 | 0.0 | 0.0 | 0.00 | 0.00 | 0.00 | 75 | 1016.3 |
| 20260510064612 | 59 | 0 | 0.0 | 0.0 | 0.00 | 0.00 | 0.00 | 75 | 1016.3 |
| 20260510064038 | 59 | 0 | 0.0 | 0.0 | 0.00 | 0.00 | 0.00 | 74 | 1016.3 |
| 20260510063540 | 59 | 0 | 0.0 | 0.0 | 0.00 | 0.00 | 0.00 | 74 | 1016.2 |
| 20260510063050 | 59 | 0 | 0.0 | 0.0 | 0.00 | 0.00 | 0.00 | 74 | 1016.3 |
| 20260510062540 | 59 | 0 | 0.0 | 0.0 | 0.00 | 0.00 | 0.00 | 74 | 1016.4 |
| 20260510062038 | 60 | 0 | 0.0 | 0.0 | 0.00 | 0.00 | 0.00 | 73 | 1016.4 |
| 20260510061552 | 60 | 0 | 0.0 | 0.0 | 0.00 | 0.00 | 0.00 | 72 | 1016.3 |
| 20260510061039 | 60 | 0 | 0.0 | 0.0 | 0.00 | 0.00 | 0.00 | 72 | 1016.2 |
| 20260510060539 | 60 | 0 | 0.0 | 0.0 | 0.00 | 0.00 | 0.00 | 72 | 1016.3 |
| 20260510060048 | 60 | 0 | 0.0 | 0.0 | 0.00 | 0.00 | 0.00 | 72 | 1016.2 |
| 20260510055539 | 60 | 0 | 0.0 | 0.0 | 0.00 | 0.00 | 0.00 | 70 | 1016.4 |
| 20260510055039 | 60 | 0 | 0.0 | 0.0 | 0.00 | 0.00 | 0.00 | 70 | 1016.3 |
| 20260510054549 | 60 | 0 | 0.0 | 0.0 | 0.00 | 0.00 | 0.00 | 70 | 1016.0 |
| 20260510054039 | 60 | 0 | 0.0 | 1.0 | 0.00 | 0.00 | 0.00 | 70 | 1016.0 |
| 20260510053539 | 61 | 0 | 0.0 | 2.0 | 0.00 | 0.00 | 0.00 | 69 | 1016.0 |
| 20260510053059 | 61 | 0 | 0.0 | 2.0 | 0.00 | 0.00 | 0.00 | 70 | 1015.9 |
| 20260510052540 | 61 | 0 | 0.0 | 2.0 | 0.00 | 0.00 | 0.00 | 69 | 1015.9 |
| 20260510052040 | 61 | 0 | 0.0 | 0.0 | 0.00 | 0.00 | 0.00 | 69 | 1016.0 |
| 20260510051548 | 61 | 0 | 0.0 | 0.0 | 0.00 | 0.00 | 0.00 | 68 | 1016.0 |
| 20260510051039 | 61 | 0 | 0.0 | 0.0 | 0.00 | 0.00 | 0.00 | 68 | 1016.0 |
| 20260510050538 | 61 | 0 | 0.0 | 0.0 | 0.00 | 0.00 | 0.00 | 67 | 1016.0 |
| 20260510050052 | 62 | 0 | 0.0 | 0.0 | 0.00 | 0.00 | 0.00 | 66 | 1016.0 |
| 20260510045540 | 62 | 0 | 0.0 | 0.0 | 0.00 | 0.00 | 0.00 | 66 | 1016.0 |
| 20260510045040 | 62 | 0 | 0.0 | 0.0 | 0.00 | 0.00 | 0.00 | 65 | 1016.0 |
| 20260510044551 | 62 | 0 | 0.0 | 0.0 | 0.00 | 0.00 | 0.00 | 65 | 1015.8 |
| 20260510044040 | 62 | 0 | 0.0 | 0.0 | 0.00 | 0.00 | 0.00 | 64 | 1015.9 |
| 20260510043538 | 63 | 0 | 0.0 | 0.0 | 0.00 | 0.00 | 0.00 | 64 | 1015.9 |
| 20260510043100 | 63 | 0 | 0.0 | 0.0 | 0.00 | 0.00 | 0.00 | 64 | 1015.8 |
| 20260510042539 | 63 | 0 | 0.0 | 0.0 | 0.00 | 0.00 | 0.00 | 64 | 1015.7 |
| 20260510042044 | 63 | 0 | 0.0 | 0.0 | 0.00 | 0.00 | 0.00 | 64 | 1015.7 |
| 20260510041549 | 64 | 0 | 0.0 | 0.0 | 0.00 | 0.00 | 0.00 | 62 | 1015.6 |
| 20260510041039 | 64 | 0 | 0.0 | 0.0 | 0.00 | 0.00 | 0.00 | 60 | 1015.5 |
| 20260510040541 | 64 | 0 | 0.0 | 0.0 | 0.00 | 0.00 | 0.00 | 60 | 1015.4 |
| 20260510040056 | 64 | 0 | 0.0 | 0.0 | 0.00 | 0.00 | 0.00 | 58 | 1015.4 |
| 20260510035539 | 65 | 0 | 0.0 | 0.0 | 0.00 | 0.00 | 0.00 | 58 | 1015.4 |
| 20260510035039 | 65 | 0 | 0.0 | 0.0 | 0.00 | 0.00 | 0.00 | 58 | 1015.4 |
| 20260510034544 | 65 | 0 | 0.0 | 0.0 | 0.00 | 0.00 | 0.00 | 56 | 1015.4 |
| 20260510034038 | 66 | 0 | 0.0 | 0.0 | 0.00 | 0.00 | 0.00 | 56 | 1015.3 |
| 20260510033537 | 66 | 0 | 0.0 | 0.0 | 0.00 | 0.00 | 0.00 | 54 | 1015.3 |
| 20260510033101 | 67 | 0 | 0.0 | 0.0 | 0.00 | 0.00 | 0.00 | 54 | 1015.2 |
| 20260510032538 | 67 | 0 | 0.0 | 0.0 | 0.00 | 0.00 | 0.00 | 53 | 1015.2 |
| 20260510032039 | 67 | 0 | 0.0 | 0.0 | 0.00 | 0.00 | 0.00 | 52 | 1015.2 |
| 20260510031549 | 68 | 0 | 0.0 | 0.0 | 0.00 | 0.00 | 0.00 | 52 | 1015.2 |
| 20260510031041 | 68 | 0 | 0.0 | 0.0 | 0.00 | 0.00 | 0.00 | 50 | 1015.2 |
| 20260510030540 | 69 | 0 | 0.0 | 0.0 | 0.00 | 0.00 | 0.00 | 49 | 1015.2 |
| 20260510030047 | 69 | 0 | 0.0 | 0.0 | 0.00 | 0.00 | 0.00 | 48 | 1015.1 |
| 20260510025537 | 70 | 0 | 0.0 | 0.0 | 0.00 | 0.00 | 0.00 | 48 | 1015.1 |
| 20260510025038 | 70 | 0 | 0.0 | 0.0 | 0.00 | 0.00 | 0.00 | 48 | 1015.0 |
| 20260510024550 | 70 | 0 | 0.0 | 0.0 | 0.00 | 0.00 | 0.00 | 49 | 1015.0 |
| 20260510024039 | 70 | 0 | 0.0 | 0.0 | 0.00 | 0.00 | 0.00 | 47 | 1015.0 |
| 20260510023540 | 71 | 0 | 0.0 | 0.0 | 0.00 | 0.00 | 0.00 | 46 | 1015.0 |
| 20260510023048 | 71 | 0 | 0.0 | 0.0 | 0.00 | 0.00 | 0.00 | 45 | 1015.0 |
| 20260510022540 | 71 | 0 | 0.0 | 0.0 | 0.00 | 0.00 | 0.00 | 45 | 1015.0 |
| 20260510022038 | 71 | 0 | 0.0 | 0.0 | 0.00 | 0.00 | 0.00 | 45 | 1014.9 |
| 20260510021550 | 71 | 0 | 0.0 | 0.0 | 0.00 | 0.00 | 0.00 | 44 | 1015.0 |
| 20260510021037 | 72 | 0 | 0.0 | 0.0 | 0.00 | 0.00 | 0.00 | 44 | 1015.0 |
| 20260510020538 | 72 | 0 | 0.0 | 0.0 | 0.00 | 0.00 | 0.00 | 43 | 1015.0 |
| 20260510020050 | 72 | 0 | 0.0 | 0.0 | 0.00 | 0.00 | 0.00 | 42 | 1015.1 |
| 20260510015537 | 73 | 0 | 0.0 | 0.0 | 0.00 | 0.00 | 0.00 | 42 | 1015.1 |
| 20260510015041 | 73 | 0 | 0.0 | 0.0 | 0.00 | 0.00 | 0.00 | 42 | 1015.1 |
| 20260510014550 | 73 | 0 | 0.0 | 0.0 | 0.00 | 0.00 | 0.00 | 44 | 1015.2 |
| 20260510014044 | 73 | 0 | 0.0 | 0.0 | 0.00 | 0.00 | 0.00 | 42 | 1015.2 |
| 20260510013542 | 73 | 0 | 0.0 | 0.0 | 0.00 | 0.00 | 0.00 | 41 | 1015.2 |
| 20260510013052 | 74 | 0 | 0.0 | 0.0 | 0.00 | 0.00 | 0.00 | 42 | 1015.3 |
| 20260510012544 | 74 | 0 | 0.0 | 0.0 | 0.00 | 0.00 | 0.00 | 40 | 1015.4 |
| 20260510012040 | 74 | 0 | 0.0 | 2.0 | 0.00 | 0.00 | 0.00 | 41 | 1015.4 |
| 20260510011550 | 75 | 0 | 0.0 | 2.0 | 0.00 | 0.00 | 0.00 | 39 | 1015.3 |
| 20260510011038 | 75 | 0 | 0.0 | 2.0 | 0.00 | 0.00 | 0.00 | 39 | 1015.3 |
| 20260510010540 | 75 | 0 | 0.0 | 1.0 | 0.00 | 0.00 | 0.00 | 40 | 1015.3 |
| 20260510010046 | 75 | 0 | 0.0 | 2.0 | 0.00 | 0.00 | 0.00 | 39 | 1015.4 |
| 20260510005540 | 76 | 0 | 0.0 | 2.0 | 0.00 | 0.00 | 0.00 | 39 | 1015.5 |
| 20260510005040 | 76 | 0 | 0.0 | 2.0 | 0.00 | 0.00 | 0.00 | 39 | 1015.5 |
| 20260510004551 | 76 | 37 | 0.0 | 2.0 | 0.00 | 0.00 | 0.00 | 38 | 1015.6 |
| 20260510004038 | 77 | 0 | 0.0 | 2.0 | 0.00 | 0.00 | 0.00 | 38 | 1015.6 |
| 20260510003539 | 77 | 0 | 0.0 | 2.0 | 0.00 | 0.00 | 0.00 | 36 | 1015.6 |
| 20260510003049 | 77 | 37 | 0.0 | 2.0 | 0.00 | 0.00 | 0.00 | 34 | 1015.6 |
| 20260510002544 | 78 | 0 | 0.0 | 2.0 | 0.00 | 0.00 | 0.00 | 34 | 1015.7 |
| 20260510002037 | 78 | 0 | 0.0 | 2.0 | 0.00 | 0.00 | 0.00 | 33 | 1015.8 |
| 20260510001549 | 78 | 0 | 0.0 | 4.0 | 0.00 | 0.00 | 0.00 | 37 | 1015.7 |
| 20260510001042 | 78 | 0 | 1.0 | 4.0 | 0.00 | 0.00 | 0.00 | 36 | 1015.8 |
| 20260510000542 | 77 | 0 | 0.0 | 3.0 | 0.00 | 0.00 | 0.00 | 35 | 1015.8 |
| 20260510000057 | 77 | 214 | 0.0 | 2.0 | 0.00 | 0.00 | 0.00 | 34 | 1015.8 |
| 20260509235542 | 76 | 0 | 0.0 | 2.0 | 0.00 | 0.00 | 0.00 | 35 | 1015.9 |
| 20260509235040 | 76 | 34 | 0.0 | 2.0 | 0.00 | 0.00 | 0.00 | 33 | 1016.0 |
| 20260509234549 | 76 | 34 | 0.0 | 3.0 | 0.00 | 0.00 | 0.00 | 35 | 1016.1 |